This demonstration page uses our WeatherBlox Daily Observations layout. Learn more.

Left ArrowRight Arrow

Hourly Observations for August 11, 2022

Temp ( °F °C ) Dew Point ( °F °C ) Humidity (%) Winds ( mph kmh ) Pressure ( in mb ) Visibility ( mi km ) Precip ( " mm )
12:53 am 00:53 Clear 75 23.9 70 21.1 84 84 Calm 30.13 1020 10 16 0.00 0.00
1:53 am 01:53 Clear 73 22.8 70 21.1 90 90 S 5 7 30.12 1020 10 16 0.00 0.00
2:53 am 02:53 Clear 73 22.8 70 21.1 90 90 SW 6 9 30.11 1020 10 16 0.00 0.00
3:53 am 03:53 Clear 72 22.2 70 21.1 93 93 Calm 30.10 1019 10 16 0.00 0.00
4:53 am 04:53 Partly Cloudy 73 22.8 70 21.1 90 90 SSW 3 6 30.10 1019 10 16 0.00 0.00
5:53 am 05:53 Mostly Clear 72 22.2 69 20.6 91 91 W 3 6 30.09 1019 10 16 0.00 0.00
6:53 am 06:53 Clear 72 22.2 69 20.6 91 91 Calm 30.09 1019 10 16 0.00 0.00
7:53 am 07:53 Mostly Sunny 72 22.2 69 20.6 91 91 Calm 30.10 1019 10 16 0.00 0.00
8:53 am 08:53 Sunny 73 22.8 69 20.6 87 87 S 3 6 30.11 1020 10 16 0.00 0.00
9:11 am 09:11 Mostly Sunny 73 22.8 69 20.6 87 87 SW 5 7 30.11 1020 10 16 0.00 0.00
9:53 am 09:53 Sunny 75 23.9 69 20.6 82 82 VRB 5 7 30.11 1020 10 16 0.00 0.00
10:53 am 10:53 Sunny 76 24.4 70 21.1 82 82 Calm 30.12 1020 10 16 0.00 0.00
11:53 am 11:53 Partly Cloudy 78 25.6 71 21.7 79 79 Calm 30.11 1020 10 16 0.00 0.00
12:31 pm 12:31 Mostly Cloudy 79 26.1 71 21.7 77 77 Calm 30.09 1019 10 16 0.00 0.00
12:45 pm 12:45 Partly Cloudy 80 26.7 71 21.7 74 74 VRB 5 7 30.08 1019 10 16 0.00 0.00
12:53 pm 12:53 Mostly Sunny 80 26.7 71 21.7 74 74 Calm 30.09 1019 10 16 0.00 0.00
1:53 pm 13:53 Mostly Sunny 82 27.8 71 21.7 69 69 SSE 3 6 30.07 1018 10 16 0.00 0.00
2:28 pm 14:28 Mostly Cloudy 83 28.3 70 21.1 65 65 Calm 30.04 1017 10 16 0.00 0.00
2:39 pm 14:39 Partly Cloudy with Nearby Thunderstorms 82 27.8 69 20.6 65 65 SSE 3 6 30.04 1017 10 16 0.00 0.00
2:53 pm 14:53 Mostly Cloudy with Nearby Thunderstorms 83 28.3 70 21.1 65 65 ESE 5 7 30.05 1018 10 16 0.00 0.00
2:59 pm 14:59 Mostly Cloudy 84 28.9 70 21.1 63 63 VRB 5 7 30.03 1017 10 16 0.00 0.00
3:27 pm 15:27 Mostly Cloudy with Nearby Thunderstorms 82 27.8 70 21.1 67 67 SW 7 11 30.03 1017 10 16 0.00 0.00
3:45 pm 15:45 Cloudy 81 27.2 69 20.6 67 67 undefined N/A 30.02 1016 10 16 0.00 0.00
3:53 pm 15:53 Cloudy with Light Rain 80 26.7 71 21.7 74 74 NNW 3 6 30.03 1017 10 16 0.01 0.13
4:53 pm 16:53 Sunny 84 28.9 72 22.2 67 67 NE 5 7 30.00 1016 10 16 0.01 0.13
5:53 pm 17:53 Mostly Sunny 81 27.2 73 22.8 77 77 Calm 30.00 1016 10 16 0.00 0.00
6:53 pm 18:53 Mostly Cloudy 81 27.2 73 22.8 77 77 NW 6 9 29.98 1015 10 16 0.00 0.00
7:18 pm 19:18 Partly Cloudy with Nearby Thunderstorms 81 27.2 73 22.8 77 77 NW 3 6 29.98 1015 10 16 0.00 0.00
7:33 pm 19:33 Mostly Cloudy 82 27.8 73 22.8 74 74 undefined N/A 29.98 1015 10 16 0.00 0.00
7:53 pm 19:53 Mostly Cloudy 81 27.2 72 22.2 74 74 undefined N/A 29.99 1016 10 16 0.00 0.00
8:51 pm 20:51 Mostly Cloudy with Nearby Thunderstorms 79 26 72 22 79 79 S 10 17 30.02 1017 10 16 0.00 0.00
8:53 pm 20:53 Mostly Cloudy with Nearby Thunderstorms 77 25 71 21.7 82 82 S 9 15 30.03 1017 10 16 0.00 0.00
9:10 pm 21:10 Cloudy 76 24.4 71 21.7 85 85 S 10 17 30.04 1017 10 16 0.00 0.00
9:20 pm 21:20 Cloudy with Thunderstorms 75 23.9 71 21.7 88 88 S 8 13 30.04 1017 10 16 0.00 0.00
9:50 pm 21:50 Cloudy 75 23.9 71 21.7 88 88 S 6 9 30.05 1018 10 16 0.01 0.13
10:53 pm 22:53 Clear 75 23.9 71 21.7 88 88 SW 6 9 30.04 1017 10 16 0.00 0.00
11:53 pm 23:53 Clear 74 23.3 71 21.7 91 91 WSW 3 6 30.03 1017 10 16 0.00 0.00

Powered by AerisWeather